Lima, OH

3:38 AM EDT on August 19, 2017 (GMT -0400)
Lima Allen County

Weather History for KAOH - September, 2013

Change the Weather History Date:

Thursday, September 12, 2013

  Actual Average (KFDY) Record (KFDY)
Temperature  
Mean Temperature 71 °F -  
Max Temperature 81 °F 75 °F 94 °F (1952)
Min Temperature 61 °F 55 °F 40 °F (1955)
Cooling Degree Days 6    
Growing Degree Days 21 (Base 50)    
Moisture  
Dew Point 63 °F    
Average Humidity 78    
Maximum Humidity 90    
Minimum Humidity 36    
Precipitation  
Precipitation 0.79 in - - ()
Sea Level Pressure  
Sea Level Pressure 29.94 in    
Wind  
Wind Speed 6 mph (West)    
Max Wind Speed 14 mph    
Max Gust Speed 21 mph    
Visibility 7 miles    
Events Rain , Thunderstorm    
Averages and records for this station are not official NWS values.
T = Trace of Precipitation, MM = Missing Value Source: NWS Daily Summary

Daily Weather History Graph

Daily Weather History Graph

Search for Another Location

Airport or City:

Trip Planner

Search our weather history database for the weather conditions in past years. The results will help you decide how hot, cold, wet, or windy it might be!

Date:

Astronomy

Sep. 12, 2013 Rise Set
Actual Time 7:14 AM EDT 7:49 PM EDT
Civil Twilight 6:46 AM EDT 8:17 PM EDT
Nautical Twilight 6:13 AM EDT 8:49 PM EDT
Astronomical Twilight 5:40 AM EDT 9:23 PM EDT
Moon 2:42 PM EDT (9/12) No Moon Set
Length of Visible Light 13h 30m
Length of Day
12h 35m
Waxing Crescent, 50% of the Moon is Illuminated
Sep 12
Waxing Crescent
Sep 12
First Quarter
Sep 19
Full
Sep 26
Last Quarter
Oct 4
New

Hourly Weather History & Observations

Time (EDT) Temp. Heat Index Dew Point Humidity Pressure Visibility Wind Dir Wind Speed Gust Speed Precip Events Conditions
12:53 AM 72.0 °F - 63.0 °F 73% 29.96 in 10.0 mi WSW 3.5 mph - N/A   Clear
1:53 AM 73.0 °F - 62.1 °F 68% 29.96 in 10.0 mi WSW 3.5 mph - N/A   Clear
2:53 AM 72.0 °F - 64.0 °F 76% 29.96 in 10.0 mi WSW 4.6 mph - N/A   Clear
3:53 AM 70.0 °F - 64.0 °F 81% 29.95 in 10.0 mi Calm Calm - N/A   Clear
4:53 AM 69.1 °F - 64.0 °F 84% 29.95 in 9.0 mi WNW 3.5 mph - N/A   Scattered Clouds
5:53 AM 71.1 °F - 66.0 °F 84% 29.95 in 7.0 mi Calm Calm - 0.01 in Rain Light Rain
6:15 AM 69.8 °F - 66.2 °F 88% 29.98 in 1.5 mi SW 3.5 mph - 0.10 in Rain Heavy Rain
6:19 AM 69.8 °F - 66.2 °F 88% 29.98 in 0.8 mi Calm Calm - 0.18 in Rain , Thunderstorm Heavy Rain
6:30 AM 69.8 °F - 66.2 °F 88% 29.98 in 2.0 mi Calm Calm - 0.22 in Rain , Thunderstorm Heavy Rain
6:38 AM 69.8 °F - 66.2 °F 88% 29.98 in 1.0 mi SW 5.8 mph - 0.36 in Rain , Thunderstorm Heavy Thunderstorms and Rain
6:41 AM 69.8 °F - 66.2 °F 88% 29.98 in 1.0 mi Variable 6.9 mph - 0.37 in Rain , Thunderstorm Heavy Thunderstorms and Rain
6:50 AM 69.8 °F - 66.2 °F 88% 29.98 in 3.0 mi WSW 9.2 mph - 0.39 in Rain , Thunderstorm Thunderstorms and Rain
6:53 AM 70.0 °F - 66.9 °F 90% 29.95 in 3.0 mi West 6.9 mph - 0.40 in Rain , Thunderstorm Light Thunderstorms and Rain
7:07 AM 69.8 °F - 66.2 °F 88% 29.98 in 4.0 mi WSW 9.2 mph - 0.02 in Rain Rain
7:19 AM 69.8 °F - 66.2 °F 88% 29.98 in 3.0 mi West 11.5 mph 17.3 mph 0.06 in Rain Rain
7:53 AM 70.0 °F - 66.0 °F 87% 29.96 in 4.0 mi WSW 10.4 mph - 0.17 in Rain Rain
8:01 AM 69.8 °F - 66.2 °F 88% 29.98 in 5.0 mi WSW 10.4 mph - 0.01 in Rain Light Rain
8:53 AM 70.0 °F - 66.9 °F 90% 29.95 in 10.0 mi West 9.2 mph - 0.04 in Rain Light Rain
9:53 AM 71.1 °F - 66.9 °F 87% 29.95 in 4.0 mi WSW 8.1 mph - 0.04 in Rain Light Rain
10:53 AM 72.0 °F - 68.0 °F 87% 29.95 in 5.0 mi WSW 10.4 mph - 0.01 in Rain Light Rain
11:53 AM 73.0 °F - 68.0 °F 84% 29.96 in 5.0 mi West 10.4 mph - 0.00 in   Haze
12:24 PM 73.4 °F - 68.0 °F 83% 29.97 in 6.0 mi WSW 10.4 mph - N/A   Haze
12:53 PM 73.9 °F - 68.0 °F 82% 29.95 in 7.0 mi West 11.5 mph - N/A   Overcast
1:19 PM 73.4 °F - 66.2 °F 78% 29.96 in 7.0 mi West 8.1 mph - N/A   Overcast
1:53 PM 75.0 °F - 66.9 °F 76% 29.93 in 9.0 mi West 8.1 mph - N/A   Scattered Clouds
2:22 PM 75.2 °F - 66.2 °F 73% 29.94 in 10.0 mi WNW 9.2 mph - N/A   Mostly Cloudy
2:53 PM 75.9 °F - 64.0 °F 67% 29.91 in 10.0 mi WNW 10.4 mph - N/A   Scattered Clouds
3:53 PM 80.1 °F 80.2 °F 55.9 °F 43% 29.88 in 10.0 mi NW 8.1 mph - N/A   Clear
4:53 PM 81.0 °F 80.4 °F 53.1 °F 38% 29.86 in 10.0 mi WNW 9.2 mph - N/A   Clear
5:53 PM 80.1 °F - 51.1 °F 36% 29.83 in 10.0 mi WNW 5.8 mph - N/A   Clear
6:53 PM 77.0 °F - 54.0 °F 45% 29.84 in 10.0 mi Calm Calm - N/A   Overcast
7:53 PM 66.9 °F - 60.1 °F 79% 29.87 in 10.0 mi North 8.1 mph - 0.03 in Rain Light Rain
8:53 PM 64.9 °F - 60.1 °F 84% 29.91 in 5.0 mi North 5.8 mph - 0.09 in Rain Rain
9:53 PM 64.0 °F - 57.9 °F 80% 29.93 in 10.0 mi North 13.8 mph 20.7 mph 0.00 in   Mostly Cloudy
10:53 PM 61.0 °F - 55.9 °F 83% 29.94 in 10.0 mi North 4.6 mph - N/A   Mostly Cloudy
11:53 PM 61.0 °F - 55.0 °F 81% 29.96 in 10.0 mi North 6.9 mph - N/A   Scattered Clouds